, MO

(GMT )
Kansas City

Weather History for KMKC - October, 2013

Change the Weather History Date:

Thursday, October 3, 2013

  Actual Average Record
Temperature  
Mean Temperature 75 °F -  
Max Temperature 86 °F 70 °F 93 °F (2006)
Min Temperature 64 °F 50 °F 43 °F (1999)
Cooling Degree Days 10    
Growing Degree Days 25 (Base 50)    
Moisture  
Dew Point 65 °F    
Average Humidity 78    
Maximum Humidity 94    
Minimum Humidity 55    
Precipitation  
Precipitation 0.48 in - - ()
Sea Level Pressure  
Sea Level Pressure 29.83 in    
Wind  
Wind Speed 7 mph (SSE)    
Max Wind Speed 17 mph    
Max Gust Speed 26 mph    
Visibility 9 miles    
Events Fog , Rain , Thunderstorm    
Averages and records for this station are not official NWS values.
T = Trace of Precipitation, MM = Missing Value Source: NWS Daily Summary

Daily Weather History Graph

Daily Weather History Graph

Search for Another Location

Airport or City:

Trip Planner

Search our weather history database for the weather conditions in past years. The results will help you decide how hot, cold, wet, or windy it might be!

Date:

Astronomy

Oct. 03, 2013 Rise Set
Actual Time 7:16 AM CDT 6:57 PM CDT
Civil Twilight 6:49 AM CDT 7:24 PM CDT
Nautical Twilight 6:18 AM CDT 7:54 PM CDT
Astronomical Twilight 5:47 AM CDT 8:26 PM CDT
Moon 5:51 AM CDT (10/3) 6:06 PM CDT (10/3)
Length of Visible Light 12h 34m
Length of Day
11h 40m
Waning Crescent, 2% of the Moon is Illuminated
Oct 3
Waning Crescent
Oct 4
New
Oct 11
First Quarter
Oct 18
Full
Oct 26
Last Quarter

Hourly Weather History & Observations

Time (CDT) Temp. Heat Index Dew Point Humidity Pressure Visibility Wind Dir Wind Speed Gust Speed Precip Events Conditions
12:54 AM 72.0 °F - 66.9 °F 84% 29.86 in 10.0 mi South 3.5 mph - N/A   Partly Cloudy
1:54 AM 72.0 °F - 66.9 °F 84% 29.85 in 10.0 mi South 5.8 mph - N/A   Partly Cloudy
2:54 AM 72.0 °F - 66.0 °F 81% 29.84 in 10.0 mi SSW 5.8 mph - N/A   Clear
3:54 AM 72.0 °F - 66.0 °F 81% 29.84 in 10.0 mi SSW 8.1 mph - N/A   Mostly Cloudy
4:54 AM 71.1 °F - 66.0 °F 84% 29.83 in 10.0 mi SSW 6.9 mph - N/A   Scattered Clouds
5:54 AM 71.1 °F - 66.0 °F 84% 29.83 in 10.0 mi SSW 4.6 mph - N/A   Partly Cloudy
6:54 AM 70.0 °F - 66.0 °F 87% 29.83 in 10.0 mi South 4.6 mph - N/A   Mostly Cloudy
7:41 AM 71.6 °F - 66.2 °F 83% 29.86 in 10.0 mi SW 4.6 mph - N/A   Mostly Cloudy
7:54 AM 72.0 °F - 66.9 °F 84% 29.84 in 10.0 mi SSW 3.5 mph - N/A   Overcast
8:39 AM 73.4 °F - 66.2 °F 78% 29.87 in 10.0 mi SSW 4.6 mph - N/A   Overcast
8:54 AM 73.0 °F - 66.9 °F 81% 29.85 in 10.0 mi SSW 10.4 mph - N/A   Overcast
9:08 AM 73.4 °F - 68.0 °F 83% 29.87 in 10.0 mi South 9.2 mph - N/A   Overcast
9:54 AM 73.0 °F - 64.9 °F 76% 29.87 in 10.0 mi North 10.4 mph - N/A   Overcast
10:02 AM 71.6 °F - 62.6 °F 73% 29.90 in 10.0 mi NW 6.9 mph - N/A Thunderstorm Overcast
10:54 AM 64.9 °F - 61.0 °F 87% 29.91 in 2.0 mi NNW 8.1 mph 26.5 mph 0.12 in Rain , Thunderstorm Light Thunderstorms and Rain
10:56 AM 64.4 °F - 60.8 °F 88% 29.92 in 0.8 mi NNE 9.2 mph 26.5 mph 0.10 in Rain , Thunderstorm Heavy Thunderstorms and Rain
10:59 AM 64.4 °F - 60.8 °F 88% 29.91 in 0.5 mi NE 11.5 mph 26.5 mph 0.20 in Fog , Rain , Thunderstorm Heavy Thunderstorms and Rain
11:12 AM 64.4 °F - 62.6 °F 94% 29.89 in 0.8 mi ENE 9.2 mph - 0.36 in Rain , Thunderstorm Heavy Thunderstorms and Rain
11:16 AM 64.4 °F - 62.6 °F 94% 29.90 in 2.5 mi ENE 5.8 mph - 0.36 in Rain , Thunderstorm Light Thunderstorms and Rain
11:23 AM 66.2 °F - 62.6 °F 88% 29.89 in 9.0 mi East 12.7 mph - 0.36 in Rain , Thunderstorm Light Thunderstorms and Rain
11:30 AM 66.2 °F - 62.6 °F 88% 29.88 in 10.0 mi ENE 6.9 mph - 0.36 in Rain , Thunderstorm Light Thunderstorms and Rain
11:54 AM 66.0 °F - 63.0 °F 90% 29.85 in 10.0 mi ESE 8.1 mph - 0.36 in   Overcast
12:43 PM 69.8 °F - 64.4 °F 83% 29.84 in 10.0 mi East 3.5 mph - N/A   Overcast
12:54 PM 70.0 °F - 64.9 °F 84% 29.82 in 10.0 mi ESE 4.6 mph - N/A   Overcast
1:54 PM 75.9 °F - 66.9 °F 74% 29.78 in 10.0 mi ESE 4.6 mph - N/A   Clear
2:54 PM 82.0 °F 85.9 °F 70.0 °F 67% 29.75 in 10.0 mi SSE 6.9 mph - N/A   Clear
3:54 PM 86.0 °F 90.7 °F 70.0 °F 59% 29.72 in 10.0 mi South 11.5 mph - N/A   Clear
4:54 PM 84.9 °F 87.6 °F 66.9 °F 55% 29.71 in 10.0 mi South 17.3 mph 25.3 mph N/A   Clear
5:54 PM 84.0 °F 86.5 °F 66.9 °F 56% 29.72 in 10.0 mi South 11.5 mph - N/A   Partly Cloudy
6:54 PM 81.0 °F 83.0 °F 66.0 °F 60% 29.73 in 10.0 mi South 8.1 mph - N/A   Partly Cloudy
7:54 PM 80.1 °F 82.3 °F 66.9 °F 64% 29.74 in 10.0 mi South 9.2 mph - N/A   Clear
8:54 PM 79.0 °F - 66.0 °F 64% 29.76 in 10.0 mi South 9.2 mph - N/A   Clear
9:54 PM 78.1 °F - 66.9 °F 68% 29.77 in 10.0 mi South 12.7 mph - N/A   Clear
11:54 PM 75.9 °F - 64.9 °F 69% 29.79 in 10.0 mi South 10.4 mph 17.3 mph N/A   Clear